CZ-3C DEB, 40203

Orbit data source: Space-Track

CZ-3C DEB, 40203 is space debris in HEO originally from a launch on Fri, 24 Feb 2012 UTC launched from the Xichang Space Center, China (XSC). Debris objects in space refer to the collection of defunct objects orbiting the Earth. Examples of debris include non-operational satellites, rocket bodies, and fragments generated from explosions, collisions, or faulty payload assembly.

Loading next visibility...
Identifier
40203, 2012-008N
Orbit
HEO
Country
Flag of CNCN / PRC
Related business
Manufacturer
CALT
Mission
Spacecraft
Bus & Motor
Unknown
Mass
Unknown
Launch date (UTC)
2012-02-24 (14 years ago)
Launch vehicle
Unknown
Launch site
Xichang Space Center, China (XSC)
Object type
Payload
Rocket body
Debris
Shape & HBR
Unknown shape, 0.3 m
Radar Cross Section
Medium (>0.1 m² and <1 m²)

Expand to show TLE details & history
Last TLE update: 1 week ago

TLE from 1 week ago
0 CZ-3C DEB
1 40203U 12008N   25279.73864775  .00000599  00000-0  27001-2 0  9997
2 40203  20.9481 295.1438 7138144 351.7539   1.0356  2.34792491101433
Epoch: 2025-10-06T17:43Z
TLE epoch observation values (Epoch: 2025-10-06T17:43:39.165Z)
Latitude
0.00047°
Longitude
13.59586°
Altitude
520.847 km
Speed
9.944 km/s
True Right ascension
19h 40m 35s
True Declination
0° 00' 02"
Sunlit
Object was in daylight at epoch
Visualization orbit readout
Latitude
Unknown
Longitude
Unknown
Altitude
Unknown
Speed
Unknown
Apparent Right ascension
Unknown
Apparent Declination
Unknown
Sunlit
N/A
Visualization observer readout
Local Sidereal Time
14:49:46
Azimuth
Unknown
Elevation
Unknown
Doppler factor
Unknown
Orbital elements
Apogee altitude
34,609.714 km
Perigee altitude
466.322 km
Semi-major axis
23,916.155 km
Eccentricity
0.71381
Inclination
20.9481°
RAAN
295.1438°
Arg. of periapsis
351.7539°
True anomaly
8.82611°
Mean anomaly
1.0356°
Eccentric anomaly
3.61266°
Mean motion
0.58682 °/min
Orbital period
613.47 mins
BSTAR
0.0027001
Loading maneuver chart data...
Computing Atmospheric mass density...
Loading historical data...
Loading historical data...
Loading historical data...
Loading historical data...
Loading historical data...
Loading historical data...
Loading historical data...

Documentation

Showing up to 5 results
|